Tracking 30009 objects as of 7-Dec-2024
HD Live streaming from Space Station
objects crossing your sky now

STARLINK-30807

Track STARLINK-30807 now!
10-day predictions
STARLINK-30807 is classified as:


NORAD ID: 58192
Int'l Code: 2023-167T
Perigee: 565.3 km
Apogee: 567.1 km
Inclination: 43.0 °
Period: 95.8 minutes
Semi major axis: 6937 km
RCS: Unknown
Launch date: October 30, 2023
Source: United States (US)
Launch site: AIR FORCE EASTERN TEST RANGE (AFETR)
Your satellite tracking list
Your tracking list is empty




NASA's NSSDC Master Catalog

Two Line Element Set (TLE):
1 58192U 23167T   24341.72227816  .00000964  00000-0  86449-4 0  9997
2 58192  43.0019 114.5218 0001274 266.4315  93.6382 15.02536937 62063
Source of the keplerian elements: AFSPC